PRIVATE WETTERSTATION BILLIGHEIM-ALLFELD                       ZURCK
Wetterdaten: Montag, 30.06.2014
Datum Zeit Temp. A. Temp. A. min Temp. A. max Feuchte A. Luftdruck Regen Wind Richtung Richtung Sonnenschein ET Solar Taupunkt Windchill Windben Empfang
30.06.2014 00:00 12,5 C 12,5 C 12,6 C 87 % 1011,2 hPa 0,4 l/m 3,2 km/h (1 Bft) O-SO 112 0 min 0,000 mm 0 W/m 10,4 C 12,5 C 8,0 km/h (2 Bft) 100 %
30.06.2014 00:10 12,5 C 12,5 C 12,5 C 87 % 1011,3 hPa 0,0 l/m 1,6 km/h (1 Bft) S-SO 157 0 min 0,000 mm 0 W/m 10,4 C 12,5 C 6,4 km/h (2 Bft) 91 %
30.06.2014 00:20 12,5 C 12,5 C 12,5 C 87 % 1011,4 hPa 0,0 l/m 3,2 km/h (1 Bft) SO 135 0 min 0,000 mm 0 W/m 10,4 C 12,5 C 8,0 km/h (2 Bft) 100 %
30.06.2014 00:30 12,6 C 12,5 C 12,6 C 87 % 1011,4 hPa 0,0 l/m 0,0 km/h (0 Bft) S-SO 157 0 min 0,000 mm 0 W/m 10,5 C 12,6 C 1,6 km/h (1 Bft) 100 %
30.06.2014 00:40 12,6 C 12,6 C 12,6 C 87 % 1011,5 hPa 0,0 l/m 1,6 km/h (1 Bft) S-SO 157 0 min 0,000 mm 0 W/m 10,5 C 12,6 C 6,4 km/h (2 Bft) 100 %
30.06.2014 00:50 12,6 C 12,6 C 12,6 C 87 % 1011,5 hPa 0,0 l/m 0,0 km/h (0 Bft) SO 135 0 min 0,000 mm 0 W/m 10,5 C 12,6 C 9,7 km/h (2 Bft) 100 %
30.06.2014 01:00 12,6 C 12,6 C 12,6 C 87 % 1011,7 hPa 0,0 l/m 1,6 km/h (1 Bft) S-SO 157 0 min 0,000 mm 0 W/m 10,5 C 12,6 C 6,4 km/h (2 Bft) 100 %
30.06.2014 01:10 12,5 C 12,5 C 12,6 C 87 % 1011,7 hPa 0,0 l/m 0,0 km/h (0 Bft) S-SO 157 0 min 0,000 mm 0 W/m 10,4 C 12,5 C 1,6 km/h (1 Bft) 100 %
30.06.2014 01:20 12,5 C 12,5 C 12,5 C 87 % 1011,8 hPa 0,0 l/m 0,0 km/h (0 Bft) S-SO 157 0 min 0,000 mm 0 W/m 10,4 C 12,5 C 1,6 km/h (1 Bft) 100 %
30.06.2014 01:30 12,5 C 12,5 C 12,5 C 87 % 1011,6 hPa 0,0 l/m 0,0 km/h (0 Bft) N 0 0 min 0,000 mm 0 W/m 10,4 C 12,5 C 0,0 km/h (0 Bft) 100 %
30.06.2014 01:40 12,5 C 12,5 C 12,6 C 87 % 1011,6 hPa 0,0 l/m 0,0 km/h (0 Bft) N 0 0 min 0,000 mm 0 W/m 10,4 C 12,5 C 0,0 km/h (0 Bft) 100 %
30.06.2014 01:50 12,5 C 12,5 C 12,5 C 87 % 1011,6 hPa 0,0 l/m 0,0 km/h (0 Bft) N 0 0 min 0,000 mm 0 W/m 10,4 C 12,5 C 0,0 km/h (0 Bft) 100 %
30.06.2014 02:00 12,4 C 12,4 C 12,5 C 87 % 1011,6 hPa 0,0 l/m 0,0 km/h (0 Bft) S-SO 157 0 min 0,000 mm 0 W/m 10,3 C 12,4 C 1,6 km/h (1 Bft) 100 %
30.06.2014 02:10 12,3 C 12,3 C 12,4 C 87 % 1011,7 hPa 0,0 l/m 1,6 km/h (1 Bft) S-SO 157 0 min 0,000 mm 0 W/m 10,2 C 12,3 C 4,8 km/h (1 Bft) 100 %
30.06.2014 02:20 12,2 C 12,2 C 12,3 C 87 % 1011,7 hPa 0,0 l/m 1,6 km/h (1 Bft) S-SO 157 0 min 0,000 mm 0 W/m 10,1 C 12,2 C 4,8 km/h (1 Bft) 100 %
30.06.2014 02:30 12,3 C 12,2 C 12,3 C 87 % 1011,7 hPa 0,0 l/m 1,6 km/h (1 Bft) S-SO 157 0 min 0,000 mm 0 W/m 10,2 C 12,3 C 4,8 km/h (1 Bft) 100 %
30.06.2014 02:40 12,4 C 12,3 C 12,4 C 87 % 1011,8 hPa 0,0 l/m 0,0 km/h (0 Bft) S-SO 157 0 min 0,000 mm 0 W/m 10,3 C 12,4 C 3,2 km/h (1 Bft) 100 %
30.06.2014 02:50 12,6 C 12,4 C 12,6 C 87 % 1011,8 hPa 0,0 l/m 0,0 km/h (0 Bft) S-SO 157 0 min 0,000 mm 0 W/m 10,5 C 12,6 C 6,4 km/h (2 Bft) 100 %
30.06.2014 03:00 12,6 C 12,6 C 12,6 C 87 % 1011,8 hPa 0,0 l/m 1,6 km/h (1 Bft) S 180 0 min 0,000 mm 0 W/m 10,5 C 12,6 C 4,8 km/h (1 Bft) 100 %
30.06.2014 03:10 12,6 C 12,6 C 12,6 C 87 % 1011,9 hPa 0,0 l/m 0,0 km/h (0 Bft) S 180 0 min 0,000 mm 0 W/m 10,5 C 12,6 C 1,6 km/h (1 Bft) 100 %
30.06.2014 03:20 12,6 C 12,6 C 12,6 C 87 % 1011,8 hPa 0,0 l/m 0,0 km/h (0 Bft) S 180 0 min 0,000 mm 0 W/m 10,5 C 12,6 C 1,6 km/h (1 Bft) 99 %
30.06.2014 03:30 12,5 C 12,5 C 12,6 C 87 % 1011,8 hPa 0,0 l/m 0,0 km/h (0 Bft) N 0 0 min 0,000 mm 0 W/m 10,4 C 12,5 C 0,0 km/h (0 Bft) 100 %
30.06.2014 03:40 12,6 C 12,5 C 12,6 C 87 % 1011,7 hPa 0,0 l/m 0,0 km/h (0 Bft) N 0 0 min 0,000 mm 0 W/m 10,5 C 12,6 C 0,0 km/h (0 Bft) 100 %
30.06.2014 03:50 12,5 C 12,5 C 12,6 C 87 % 1011,8 hPa 0,0 l/m 0,0 km/h (0 Bft) S 180 0 min 0,000 mm 0 W/m 10,4 C 12,5 C 1,6 km/h (1 Bft) 100 %
30.06.2014 04:00 12,4 C 12,4 C 12,5 C 87 % 1011,8 hPa 0,0 l/m 0,0 km/h (0 Bft) S 180 0 min 0,000 mm 0 W/m 10,3 C 12,4 C 3,2 km/h (1 Bft) 100 %
30.06.2014 04:10 12,4 C 12,4 C 12,4 C 87 % 1011,8 hPa 0,0 l/m 0,0 km/h (0 Bft) S 180 0 min 0,000 mm 0 W/m 10,3 C 12,4 C 1,6 km/h (1 Bft) 87 %
30.06.2014 04:20 12,4 C 12,4 C 12,4 C 87 % 1011,8 hPa 0,0 l/m 0,0 km/h (0 Bft) S 180 0 min 0,000 mm 0 W/m 10,3 C 12,4 C 4,8 km/h (1 Bft) 100 %
30.06.2014 04:30 12,4 C 12,4 C 12,4 C 87 % 1011,9 hPa 0,0 l/m 0,0 km/h (0 Bft) W 270 0 min 0,000 mm 0 W/m 10,3 C 12,4 C 4,8 km/h (1 Bft) 100 %
30.06.2014 04:40 12,5 C 12,4 C 12,5 C 87 % 1011,9 hPa 0,0 l/m 1,6 km/h (1 Bft) W 270 0 min 0,000 mm 0 W/m 10,4 C 12,5 C 6,4 km/h (2 Bft) 100 %
30.06.2014 04:50 12,5 C 12,4 C 12,5 C 87 % 1011,9 hPa 0,0 l/m 0,0 km/h (0 Bft) W 270 0 min 0,000 mm 0 W/m 10,4 C 12,5 C 4,8 km/h (1 Bft) 100 %
30.06.2014 05:00 12,5 C 12,4 C 12,5 C 87 % 1011,9 hPa 0,0 l/m 1,6 km/h (1 Bft) W 270 0 min 0,000 mm 0 W/m 10,4 C 12,5 C 4,8 km/h (1 Bft) 100 %
30.06.2014 05:10 12,4 C 12,4 C 12,5 C 87 % 1011,9 hPa 0,0 l/m 1,6 km/h (1 Bft) W 270 0 min 0,000 mm 0 W/m 10,3 C 12,4 C 9,7 km/h (2 Bft) 100 %
30.06.2014 05:20 12,4 C 12,4 C 12,4 C 87 % 1011,8 hPa 0,0 l/m 1,6 km/h (1 Bft) W-SW 247 0 min 0,000 mm 0 W/m 10,3 C 12,4 C 6,4 km/h (2 Bft) 100 %
30.06.2014 05:30 12,4 C 12,4 C 12,4 C 87 % 1011,8 hPa 0,0 l/m 1,6 km/h (1 Bft) W-SW 247 0 min 0,000 mm 0 W/m 10,3 C 12,4 C 8,0 km/h (2 Bft) 100 %
30.06.2014 05:40 12,4 C 12,3 C 12,4 C 87 % 1011,8 hPa 0,0 l/m 3,2 km/h (1 Bft) W-SW 247 0 min 0,000 mm 0 W/m 10,3 C 12,4 C 14,5 km/h (3 Bft) 100 %
30.06.2014 05:50 12,3 C 12,3 C 12,4 C 87 % 1011,7 hPa 0,0 l/m 3,2 km/h (1 Bft) W-SW 247 0 min 0,000 mm 7 W/m 10,2 C 12,3 C 14,5 km/h (3 Bft) 100 %
30.06.2014 06:00 12,2 C 12,2 C 12,3 C 87 % 1012,0 hPa 0,0 l/m 3,2 km/h (1 Bft) W-SW 247 0 min 0,000 mm 11 W/m 10,1 C 12,2 C 9,7 km/h (2 Bft) 100 %
30.06.2014 06:10 12,2 C 12,2 C 12,2 C 87 % 1012,1 hPa 0,0 l/m 1,6 km/h (1 Bft) W-SW 247 0 min 0,000 mm 21 W/m 10,1 C 12,2 C 8,0 km/h (2 Bft) 100 %
30.06.2014 06:20 12,3 C 12,2 C 12,3 C 87 % 1012,3 hPa 0,0 l/m 1,6 km/h (1 Bft) W-SW 247 0 min 0,000 mm 30 W/m 10,2 C 12,3 C 6,4 km/h (2 Bft) 100 %
30.06.2014 06:30 12,3 C 12,3 C 12,3 C 87 % 1012,3 hPa 0,0 l/m 0,0 km/h (0 Bft) W-SW 247 0 min 0,000 mm 28 W/m 10,2 C 12,3 C 1,6 km/h (1 Bft) 100 %
30.06.2014 06:40 12,4 C 12,3 C 12,4 C 87 % 1012,4 hPa 0,0 l/m 0,0 km/h (0 Bft) W-SW 247 0 min 0,000 mm 39 W/m 10,3 C 12,4 C 3,2 km/h (1 Bft) 100 %
30.06.2014 06:50 12,5 C 12,4 C 12,5 C 87 % 1012,5 hPa 0,0 l/m 1,6 km/h (1 Bft) W-SW 247 0 min 0,000 mm 39 W/m 10,4 C 12,5 C 4,8 km/h (1 Bft) 100 %
30.06.2014 07:00 12,5 C 12,5 C 12,5 C 87 % 1012,6 hPa 0,0 l/m 1,6 km/h (1 Bft) W-SW 247 0 min 0,025 mm 51 W/m 10,4 C 12,5 C 6,4 km/h (2 Bft) 100 %
30.06.2014 07:10 12,6 C 12,5 C 12,6 C 87 % 1012,7 hPa 0,0 l/m 1,6 km/h (1 Bft) W-SW 247 0 min 0,000 mm 67 W/m 10,5 C 12,6 C 6,4 km/h (2 Bft) 99 %
30.06.2014 07:20 12,7 C 12,6 C 12,7 C 87 % 1012,8 hPa 0,0 l/m 1,6 km/h (1 Bft) W-SW 247 0 min 0,000 mm 74 W/m 10,6 C 12,7 C 8,0 km/h (2 Bft) 99 %
30.06.2014 07:30 12,6 C 12,6 C 12,7 C 87 % 1012,8 hPa 0,0 l/m 3,2 km/h (1 Bft) W-SW 247 0 min 0,000 mm 70 W/m 10,5 C 12,6 C 11,3 km/h (2 Bft) 100 %
30.06.2014 07:40 12,6 C 12,6 C 12,7 C 87 % 1013,0 hPa 0,0 l/m 1,6 km/h (1 Bft) W-SW 247 0 min 0,000 mm 65 W/m 10,5 C 12,6 C 9,7 km/h (2 Bft) 100 %
30.06.2014 07:50 12,7 C 12,6 C 12,7 C 87 % 1013,1 hPa 0,0 l/m 1,6 km/h (1 Bft) W-SW 247 0 min 0,000 mm 46 W/m 10,6 C 12,7 C 9,7 km/h (2 Bft) 100 %
30.06.2014 08:00 12,7 C 12,7 C 12,7 C 87 % 1013,3 hPa 0,6 l/m 1,6 km/h (1 Bft) W-SW 247 0 min 0,025 mm 21 W/m 10,6 C 12,7 C 6,4 km/h (2 Bft) 100 %
30.06.2014 08:10 12,6 C 12,6 C 12,7 C 87 % 1013,4 hPa 1,0 l/m 0,0 km/h (0 Bft) W-SW 247 0 min 0,000 mm 11 W/m 10,5 C 12,6 C 6,4 km/h (2 Bft) 90 %
30.06.2014 08:20 12,5 C 12,5 C 12,6 C 87 % 1013,6 hPa 1,6 l/m 1,6 km/h (1 Bft) W-SW 247 0 min 0,000 mm 18 W/m 10,4 C 12,5 C 6,4 km/h (2 Bft) 100 %
30.06.2014 08:30 12,4 C 12,4 C 12,5 C 87 % 1013,9 hPa 0,2 l/m 3,2 km/h (1 Bft) W-NW 292 0 min 0,000 mm 19 W/m 10,3 C 12,4 C 9,7 km/h (2 Bft) 100 %
30.06.2014 08:40 12,4 C 12,4 C 12,4 C 87 % 1013,8 hPa 0,2 l/m 1,6 km/h (1 Bft) W-NW 292 0 min 0,000 mm 32 W/m 10,3 C 12,4 C 6,4 km/h (2 Bft) 100 %
30.06.2014 08:50 12,3 C 12,3 C 12,4 C 87 % 1013,8 hPa 0,0 l/m 0,0 km/h (0 Bft) W-NW 292 0 min 0,000 mm 62 W/m 10,2 C 12,3 C 6,4 km/h (2 Bft) 100 %
30.06.2014 09:00 12,5 C 12,3 C 12,5 C 87 % 1014,0 hPa 0,0 l/m 0,0 km/h (0 Bft) W-NW 292 0 min 0,025 mm 86 W/m 10,4 C 12,5 C 4,8 km/h (1 Bft) 100 %
30.06.2014 09:10 12,7 C 12,5 C 12,7 C 87 % 1014,1 hPa 0,0 l/m 0,0 km/h (0 Bft) W-NW 292 0 min 0,000 mm 109 W/m 10,6 C 12,7 C 1,6 km/h (1 Bft) 100 %
30.06.2014 09:20 12,8 C 12,7 C 12,8 C 87 % 1014,2 hPa 0,0 l/m 1,6 km/h (1 Bft) W-NW 292 0 min 0,000 mm 107 W/m 10,7 C 12,8 C 8,0 km/h (2 Bft) 100 %
30.06.2014 09:30 12,9 C 12,8 C 12,9 C 87 % 1014,2 hPa 0,0 l/m 1,6 km/h (1 Bft) W-NW 292 0 min 0,000 mm 139 W/m 10,8 C 12,9 C 8,0 km/h (2 Bft) 100 %
30.06.2014 09:40 13,1 C 12,9 C 13,1 C 87 % 1014,3 hPa 0,0 l/m 1,6 km/h (1 Bft) W-NW 292 10 min 0,000 mm 156 W/m 11,0 C 13,1 C 8,0 km/h (2 Bft) 100 %
30.06.2014 09:50 13,3 C 13,1 C 13,3 C 87 % 1014,4 hPa 0,0 l/m 3,2 km/h (1 Bft) W 270 0 min 0,000 mm 146 W/m 11,2 C 13,3 C 9,7 km/h (2 Bft) 100 %
30.06.2014 10:00 13,2 C 13,2 C 13,3 C 88 % 1014,4 hPa 0,0 l/m 4,8 km/h (1 Bft) W 270 10 min 0,076 mm 155 W/m 11,3 C 13,2 C 14,5 km/h (3 Bft) 100 %
30.06.2014 10:10 13,3 C 13,2 C 13,3 C 87 % 1014,5 hPa 0,0 l/m 3,2 km/h (1 Bft) W-NW 292 10 min 0,000 mm 171 W/m 11,2 C 13,3 C 11,3 km/h (2 Bft) 100 %
30.06.2014 10:20 13,4 C 13,3 C 13,4 C 87 % 1014,6 hPa 0,0 l/m 3,2 km/h (1 Bft) W-NW 292 10 min 0,000 mm 399 W/m 11,3 C 13,4 C 12,9 km/h (3 Bft) 100 %
30.06.2014 10:30 13,9 C 13,5 C 13,9 C 87 % 1014,8 hPa 0,0 l/m 6,4 km/h (2 Bft) W 270 10 min 0,000 mm 638 W/m 11,8 C 13,9 C 14,5 km/h (3 Bft) 100 %
30.06.2014 10:40 14,1 C 13,9 C 14,1 C 88 % 1014,9 hPa 0,0 l/m 4,8 km/h (1 Bft) W 270 10 min 0,000 mm 462 W/m 12,1 C 14,1 C 14,5 km/h (3 Bft) 100 %
30.06.2014 10:50 14,3 C 14,1 C 14,4 C 87 % 1014,9 hPa 0,0 l/m 4,8 km/h (1 Bft) W 270 10 min 0,000 mm 949 W/m 12,2 C 14,3 C 16,1 km/h (3 Bft) 100 %
30.06.2014 11:00 14,4 C 14,3 C 14,4 C 87 % 1015,1 hPa 0,0 l/m 6,4 km/h (2 Bft) W-NW 292 10 min 0,178 mm 348 W/m 12,3 C 14,4 C 14,5 km/h (3 Bft) 100 %
30.06.2014 11:10 14,4 C 14,3 C 14,4 C 86 % 1015,0 hPa 0,0 l/m 6,4 km/h (2 Bft) W 270 10 min 0,000 mm 345 W/m 12,1 C 14,4 C 16,1 km/h (3 Bft) 100 %
30.06.2014 11:20 14,5 C 14,4 C 14,5 C 86 % 1015,1 hPa 0,0 l/m 6,4 km/h (2 Bft) W 270 10 min 0,000 mm 360 W/m 12,2 C 14,5 C 12,9 km/h (3 Bft) 100 %
30.06.2014 11:30 14,2 C 14,2 C 14,5 C 86 % 1015,2 hPa 0,0 l/m 4,8 km/h (1 Bft) W-SW 247 10 min 0,000 mm 306 W/m 11,9 C 14,2 C 16,1 km/h (3 Bft) 100 %
30.06.2014 11:40 14,3 C 14,2 C 14,3 C 86 % 1015,1 hPa 0,0 l/m 6,4 km/h (2 Bft) SW 225 10 min 0,000 mm 483 W/m 12,0 C 14,3 C 17,7 km/h (3 Bft) 100 %
30.06.2014 11:50 14,9 C 14,3 C 14,9 C 86 % 1015,1 hPa 0,0 l/m 6,4 km/h (2 Bft) W 270 10 min 0,000 mm 784 W/m 12,6 C 14,9 C 19,3 km/h (3 Bft) 100 %
30.06.2014 12:00 15,8 C 14,9 C 15,8 C 86 % 1015,1 hPa 0,0 l/m 4,8 km/h (1 Bft) W-SW 247 10 min 0,229 mm 1018 W/m 13,5 C 15,8 C 22,5 km/h (4 Bft) 100 %
30.06.2014 12:10 15,8 C 15,8 C 15,9 C 81 % 1015,1 hPa 0,0 l/m 8,0 km/h (2 Bft) W-SW 247 10 min 0,000 mm 403 W/m 12,5 C 14,9 C 22,5 km/h (4 Bft) 100 %
30.06.2014 12:20 16,2 C 15,7 C 16,2 C 84 % 1015,1 hPa 0,0 l/m 8,0 km/h (2 Bft) W-SW 247 10 min 0,000 mm 1136 W/m 13,5 C 15,4 C 20,9 km/h (4 Bft) 100 %
30.06.2014 12:30 16,6 C 16,2 C 16,6 C 75 % 1015,1 hPa 0,0 l/m 11,3 km/h (2 Bft) W-SW 247 10 min 0,000 mm 1113 W/m 12,1 C 14,4 C 22,5 km/h (4 Bft) 100 %
30.06.2014 12:40 16,6 C 16,5 C 16,6 C 77 % 1015,0 hPa 0,0 l/m 8,0 km/h (2 Bft) W 270 10 min 0,000 mm 1104 W/m 12,5 C 15,8 C 19,3 km/h (3 Bft) 100 %
30.06.2014 12:50 17,1 C 16,6 C 17,1 C 75 % 1014,9 hPa 0,0 l/m 8,0 km/h (2 Bft) W 270 10 min 0,000 mm 1160 W/m 12,6 C 16,3 C 22,5 km/h (4 Bft) 100 %
30.06.2014 13:00 17,0 C 17,0 C 17,1 C 73 % 1014,9 hPa 0,0 l/m 12,9 km/h (3 Bft) W-NW 292 10 min 0,356 mm 527 W/m 12,1 C 14,3 C 24,1 km/h (4 Bft) 100 %
30.06.2014 13:10 16,7 C 16,7 C 17,0 C 76 % 1014,9 hPa 0,0 l/m 11,3 km/h (2 Bft) NW 315 10 min 0,000 mm 473 W/m 12,4 C 14,5 C 24,1 km/h (4 Bft) 100 %
30.06.2014 13:20 16,3 C 16,3 C 16,7 C 66 % 1015,0 hPa 0,0 l/m 11,3 km/h (2 Bft) W 270 10 min 0,000 mm 522 W/m 9,9 C 14,0 C 24,1 km/h (4 Bft) 100 %
30.06.2014 13:30 15,9 C 15,9 C 16,3 C 72 % 1015,0 hPa 0,0 l/m 9,7 km/h (2 Bft) W 270 10 min 0,000 mm 452 W/m 10,9 C 14,2 C 22,5 km/h (4 Bft) 100 %
30.06.2014 13:40 15,8 C 15,8 C 15,9 C 74 % 1014,9 hPa 0,0 l/m 6,4 km/h (2 Bft) W 270 10 min 0,000 mm 415 W/m 11,2 C 15,8 C 19,3 km/h (3 Bft) 100 %
30.06.2014 13:50 16,0 C 15,8 C 16,0 C 71 % 1014,9 hPa 0,0 l/m 4,8 km/h (1 Bft) W-SW 247 10 min 0,000 mm 330 W/m 10,7 C 16,0 C 16,1 km/h (3 Bft) 100 %
30.06.2014 14:00 16,4 C 16,0 C 16,4 C 73 % 1014,8 hPa 0,0 l/m 8,0 km/h (2 Bft) W-SW 247 10 min 0,279 mm 1069 W/m 11,5 C 15,6 C 16,1 km/h (3 Bft) 100 %
30.06.2014 14:10 17,1 C 16,4 C 17,1 C 68 % 1014,8 hPa 0,0 l/m 8,0 km/h (2 Bft) W-SW 247 10 min 0,000 mm 953 W/m 11,1 C 16,3 C 20,9 km/h (4 Bft) 99 %
30.06.2014 14:20 17,8 C 17,1 C 17,8 C 63 % 1014,9 hPa 0,0 l/m 9,7 km/h (2 Bft) W 270 10 min 0,000 mm 886 W/m 10,7 C 16,3 C 25,7 km/h (4 Bft) 100 %
30.06.2014 14:30 18,3 C 17,8 C 18,3 C 63 % 1014,9 hPa 0,0 l/m 14,5 km/h (3 Bft) W-SW 247 10 min 0,000 mm 882 W/m 11,1 C 15,3 C 27,4 km/h (4 Bft) 100 %
30.06.2014 14:40 18,8 C 18,3 C 18,8 C 60 % 1014,8 hPa 0,0 l/m 11,3 km/h (2 Bft) W 270 10 min 0,000 mm 868 W/m 10,9 C 16,9 C 24,1 km/h (4 Bft) 100 %
30.06.2014 14:50 19,1 C 18,8 C 19,1 C 58 % 1014,8 hPa 0,0 l/m 12,9 km/h (3 Bft) W 270 10 min 0,000 mm 865 W/m 10,6 C 16,7 C 24,1 km/h (4 Bft) 100 %
30.06.2014 15:00 19,3 C 19,1 C 19,5 C 58 % 1014,6 hPa 0,0 l/m 8,0 km/h (2 Bft) SW 225 10 min 0,483 mm 868 W/m 10,8 C 18,6 C 22,5 km/h (4 Bft) 100 %
30.06.2014 15:10 19,4 C 19,2 C 19,4 C 57 % 1014,7 hPa 0,0 l/m 11,3 km/h (2 Bft) W-SW 247 10 min 0,000 mm 902 W/m 10,7 C 17,6 C 22,5 km/h (4 Bft) 91 %
30.06.2014 15:20 20,1 C 19,4 C 20,1 C 56 % 1014,7 hPa 0,0 l/m 9,7 km/h (2 Bft) NW 315 10 min 0,000 mm 953 W/m 11,0 C 18,8 C 19,3 km/h (3 Bft) 100 %
30.06.2014 15:30 19,8 C 19,8 C 20,1 C 55 % 1014,8 hPa 0,0 l/m 8,0 km/h (2 Bft) W-NW 292 10 min 0,000 mm 200 W/m 10,5 C 19,1 C 22,5 km/h (4 Bft) 100 %
30.06.2014 15:40 19,7 C 19,7 C 19,8 C 57 % 1014,6 hPa 0,0 l/m 9,7 km/h (2 Bft) W-NW 292 10 min 0,000 mm 953 W/m 10,9 C 18,4 C 25,7 km/h (4 Bft) 100 %
30.06.2014 15:50 20,4 C 19,7 C 20,4 C 56 % 1014,8 hPa 0,0 l/m 8,0 km/h (2 Bft) SW 225 10 min 0,000 mm 925 W/m 11,3 C 19,8 C 25,7 km/h (4 Bft) 100 %
30.06.2014 16:00 20,0 C 19,7 C 20,4 C 54 % 1015,0 hPa 0,0 l/m 22,9 km/h (4 Bft) W-NW 292 0 min 0,432 mm 88 W/m 10,4 C 15,7 C 33,8 km/h (5 Bft) 100 %
30.06.2014 16:10 17,2 C 17,2 C 20,0 C 67 % 1015,3 hPa 0,0 l/m 21,0 km/h (4 Bft) NW 313 0 min 0,000 mm 47 W/m 11,0 C 12,4 C 37,0 km/h (5 Bft) 99 %
30.06.2014 16:20 14,9 C 14,9 C 17,2 C 77 % 1015,4 hPa 1,4 l/m 13,8 km/h (3 Bft) W 277 0 min 0,000 mm 63 W/m 10,9 C 11,5 C 27,4 km/h (4 Bft) 100 %
30.06.2014 16:30 13,8 C 13,8 C 14,9 C 80 % 1015,4 hPa 0,2 l/m 11,1 km/h (2 Bft) W-NW 299 0 min 0,000 mm 79 W/m 10,4 C 11,3 C 29,0 km/h (5 Bft) 100 %
30.06.2014 16:40 13,4 C 13,4 C 13,8 C 82 % 1015,1 hPa 0,0 l/m 4,4 km/h (1 Bft) N-NW 331 10 min 0,000 mm 526 W/m 10,4 C 13,4 C 19,3 km/h (3 Bft) 100 %
30.06.2014 16:50 14,1 C 13,4 C 14,1 C 84 % 1015,2 hPa 0,0 l/m 0,0 km/h (0 Bft) N-NW 330 10 min 0,000 mm 348 W/m 11,4 C 14,1 C 1,6 km/h (1 Bft) 100 %
30.06.2014 17:00 15,1 C 14,1 C 15,1 C 83 % 1015,0 hPa 0,0 l/m 0,4 km/h (0 Bft) SW 218 10 min 0,153 mm 582 W/m 12,2 C 15,1 C 6,4 km/h (2 Bft) 100 %
30.06.2014 17:10 16,2 C 15,1 C 16,2 C 80 % 1015,1 hPa 0,0 l/m 4,1 km/h (1 Bft) S-SW 209 10 min 0,000 mm 265 W/m 12,7 C 16,2 C 9,7 km/h (2 Bft) 100 %
30.06.2014 17:20 16,6 C 16,2 C 16,6 C 76 % 1015,2 hPa 0,0 l/m 3,2 km/h (1 Bft) W-SW 238 0 min 0,000 mm 144 W/m 12,3 C 16,6 C 9,7 km/h (2 Bft) 100 %
30.06.2014 17:30 16,6 C 16,6 C 16,7 C 74 % 1015,4 hPa 0,0 l/m 6,9 km/h (2 Bft) W 263 0 min 0,000 mm 125 W/m 11,9 C 16,3 C 19,3 km/h (3 Bft) 100 %
30.06.2014 17:40 16,1 C 16,1 C 16,6 C 69 % 1015,5 hPa 0,0 l/m 13,6 km/h (3 Bft) W-SW 246 0 min 0,000 mm 95 W/m 10,4 C 13,0 C 30,6 km/h (5 Bft) 100 %
30.06.2014 17:50 15,8 C 15,8 C 16,1 C 72 % 1015,2 hPa 0,0 l/m 5,9 km/h (2 Bft) S-SW 194 10 min 0,000 mm 206 W/m 10,8 C 15,8 C 16,1 km/h (3 Bft) 100 %
30.06.2014 18:00 16,2 C 15,8 C 16,2 C 72 % 1015,1 hPa 0,0 l/m 2,9 km/h (1 Bft) SW 227 10 min 0,152 mm 241 W/m 11,1 C 16,2 C 9,7 km/h (2 Bft) 100 %
30.06.2014 18:10 16,6 C 16,2 C 16,6 C 72 % 1015,2 hPa 0,0 l/m 2,1 km/h (1 Bft) S-SW 194 10 min 0,000 mm 178 W/m 11,5 C 16,6 C 11,3 km/h (2 Bft) 100 %
30.06.2014 18:20 16,4 C 16,4 C 16,6 C 74 % 1015,2 hPa 0,0 l/m 7,1 km/h (2 Bft) S-SW 199 0 min 0,000 mm 149 W/m 11,8 C 16,0 C 14,5 km/h (3 Bft) 100 %
30.06.2014 18:30 16,6 C 16,4 C 16,6 C 76 % 1015,3 hPa 0,0 l/m 4,7 km/h (1 Bft) S 188 10 min 0,000 mm 255 W/m 12,3 C 16,6 C 11,3 km/h (2 Bft) 100 %
30.06.2014 18:40 16,9 C 16,6 C 16,9 C 74 % 1015,2 hPa 0,0 l/m 5,8 km/h (2 Bft) S-SO 156 10 min 0,000 mm 380 W/m 12,2 C 16,9 C 9,7 km/h (2 Bft) 100 %
30.06.2014 18:50 17,0 C 16,9 C 17,0 C 74 % 1015,3 hPa 0,0 l/m 5,7 km/h (1 Bft) S 180 10 min 0,000 mm 230 W/m 12,3 C 17,0 C 14,5 km/h (3 Bft) 100 %
30.06.2014 19:00 17,0 C 16,9 C 17,0 C 75 % 1015,3 hPa 0,0 l/m 6,0 km/h (2 Bft) S-SO 163 0 min 0,127 mm 139 W/m 12,5 C 17,0 C 14,5 km/h (3 Bft) 100 %
30.06.2014 19:10 16,9 C 16,9 C 17,0 C 74 % 1015,4 hPa 0,0 l/m 3,6 km/h (1 Bft) S-SW 200 10 min 0,000 mm 167 W/m 12,2 C 16,9 C 9,7 km/h (2 Bft) 100 %
30.06.2014 19:20 17,0 C 16,9 C 17,0 C 76 % 1015,4 hPa 0,0 l/m 1,9 km/h (1 Bft) S 184 0 min 0,000 mm 98 W/m 12,7 C 17,0 C 8,0 km/h (2 Bft) 99 %
30.06.2014 19:30 16,7 C 16,7 C 17,0 C 75 % 1015,5 hPa 0,0 l/m 0,3 km/h (0 Bft) S 185 0 min 0,000 mm 65 W/m 12,2 C 16,7 C 6,4 km/h (2 Bft) 100 %
30.06.2014 19:40 16,4 C 16,4 C 16,7 C 78 % 1015,5 hPa 0,0 l/m 1,0 km/h (0 Bft) S 184 0 min 0,000 mm 54 W/m 12,6 C 16,4 C 6,4 km/h (2 Bft) 100 %
30.06.2014 19:50 16,3 C 16,3 C 16,4 C 78 % 1015,5 hPa 0,0 l/m 2,8 km/h (1 Bft) S-SW 209 0 min 0,000 mm 98 W/m 12,5 C 16,3 C 9,7 km/h (2 Bft) 100 %
30.06.2014 20:00 16,3 C 16,3 C 16,3 C 76 % 1015,5 hPa 0,0 l/m 3,4 km/h (1 Bft) S-SW 193 0 min 0,000 mm 53 W/m 12,1 C 16,3 C 11,3 km/h (2 Bft) 100 %
30.06.2014 20:10 16,1 C 16,1 C 16,3 C 77 % 1015,5 hPa 0,0 l/m 2,2 km/h (1 Bft) S-SW 193 0 min 0,051 mm 47 W/m 12,1 C 16,1 C 8,0 km/h (2 Bft) 100 %
30.06.2014 20:20 15,8 C 15,8 C 16,1 C 79 % 1015,7 hPa 0,0 l/m 0,0 km/h (0 Bft) S 184 0 min 0,000 mm 28 W/m 12,2 C 15,8 C 1,6 km/h (1 Bft) 99 %
30.06.2014 20:30 15,6 C 15,6 C 15,8 C 79 % 1015,8 hPa 0,0 l/m 0,0 km/h (0 Bft) S 183 0 min 0,000 mm 19 W/m 12,0 C 15,6 C 1,6 km/h (1 Bft) 100 %
30.06.2014 20:40 15,4 C 15,4 C 15,6 C 79 % 1015,9 hPa 0,0 l/m 0,0 km/h (0 Bft) S-SO 150 0 min 0,000 mm 16 W/m 11,8 C 15,4 C 1,6 km/h (1 Bft) 100 %
30.06.2014 20:50 15,4 C 15,4 C 15,4 C 82 % 1016,1 hPa 0,0 l/m 0,6 km/h (0 Bft) N-NW 338 0 min 0,000 mm 25 W/m 12,3 C 15,4 C 8,0 km/h (2 Bft) 100 %
30.06.2014 21:00 15,3 C 15,3 C 15,4 C 83 % 1016,2 hPa 0,0 l/m 0,2 km/h (0 Bft) N-NW 338 0 min 0,025 mm 12 W/m 12,4 C 15,3 C 4,8 km/h (1 Bft) 100 %
30.06.2014 21:10 15,1 C 15,1 C 15,3 C 83 % 1016,3 hPa 0,0 l/m 0,0 km/h (0 Bft) N-NW 337 0 min 0,000 mm 11 W/m 12,2 C 15,1 C 1,6 km/h (1 Bft) 100 %
30.06.2014 21:20 15,0 C 15,0 C 15,1 C 83 % 1016,5 hPa 0,0 l/m 0,0 km/h (0 Bft) N-NW 337 0 min 0,000 mm 11 W/m 12,1 C 15,0 C 1,6 km/h (1 Bft) 100 %
30.06.2014 21:30 14,7 C 14,7 C 15,0 C 81 % 1016,5 hPa 0,0 l/m 0,0 km/h (0 Bft) N 0 0 min 0,000 mm 5 W/m 11,5 C 14,7 C 0,0 km/h (0 Bft) 100 %
30.06.2014 21:40 14,6 C 14,6 C 14,7 C 83 % 1016,7 hPa 0,0 l/m 0,0 km/h (0 Bft) N 0 0 min 0,000 mm 0 W/m 11,7 C 14,6 C 0,0 km/h (0 Bft) 100 %
30.06.2014 21:50 14,5 C 14,5 C 14,6 C 83 % 1016,8 hPa 0,0 l/m 0,0 km/h (0 Bft) N-NW 337 0 min 0,000 mm 0 W/m 11,6 C 14,5 C 3,2 km/h (1 Bft) 100 %
30.06.2014 22:00 14,3 C 14,3 C 14,5 C 83 % 1016,9 hPa 0,0 l/m 0,0 km/h (0 Bft) N-NW 337 0 min 0,000 mm 0 W/m 11,5 C 14,3 C 1,6 km/h (1 Bft) 100 %
30.06.2014 22:10 14,2 C 14,2 C 14,3 C 82 % 1017,0 hPa 0,0 l/m 0,0 km/h (0 Bft) N-NW 337 0 min 0,000 mm 0 W/m 11,2 C 14,2 C 1,6 km/h (1 Bft) 100 %
30.06.2014 22:20 14,1 C 14,1 C 14,2 C 83 % 1017,0 hPa 0,0 l/m 0,0 km/h (0 Bft) N 0 0 min 0,000 mm 0 W/m 11,3 C 14,1 C 0,0 km/h (0 Bft) 99 %
30.06.2014 22:30 13,8 C 13,8 C 14,1 C 83 % 1017,1 hPa 0,0 l/m 0,0 km/h (0 Bft) N 0 0 min 0,000 mm 0 W/m 11,0 C 13,8 C 0,0 km/h (0 Bft) 100 %
30.06.2014 22:40 13,5 C 13,5 C 13,8 C 84 % 1017,2 hPa 0,0 l/m 0,0 km/h (0 Bft) N-NW 337 0 min 0,000 mm 0 W/m 10,8 C 13,5 C 1,6 km/h (1 Bft) 100 %
30.06.2014 22:50 13,3 C 13,3 C 13,5 C 85 % 1017,3 hPa 0,0 l/m 0,0 km/h (0 Bft) N 0 0 min 0,000 mm 0 W/m 10,8 C 13,3 C 0,0 km/h (0 Bft) 100 %
30.06.2014 23:00 13,1 C 13,1 C 13,3 C 85 % 1017,4 hPa 0,0 l/m 0,0 km/h (0 Bft) N 0 0 min 0,025 mm 0 W/m 10,6 C 13,1 C 0,0 km/h (0 Bft) 100 %
30.06.2014 23:10 13,0 C 13,0 C 13,1 C 85 % 1017,5 hPa 0,0 l/m 0,0 km/h (0 Bft) N-NW 337 0 min 0,000 mm 0 W/m 10,5 C 13,0 C 1,6 km/h (1 Bft) 100 %
30.06.2014 23:20 13,0 C 13,0 C 13,0 C 85 % 1017,7 hPa 0,0 l/m 0,0 km/h (0 Bft) N-NW 337 0 min 0,000 mm 0 W/m 10,5 C 13,0 C 3,2 km/h (1 Bft) 100 %
30.06.2014 23:30 13,1 C 13,0 C 13,1 C 86 % 1017,8 hPa 0,0 l/m 6,4 km/h (2 Bft) S-SW 202 0 min 0,000 mm 0 W/m 10,8 C 13,1 C 17,7 km/h (3 Bft) 100 %
30.06.2014 23:40 13,3 C 13,1 C 13,3 C 86 % 1017,6 hPa 0,2 l/m 4,8 km/h (1 Bft) S 180 0 min 0,000 mm 0 W/m 11,0 C 13,3 C 14,5 km/h (3 Bft) 100 %
30.06.2014 23:50 13,2 C 13,2 C 13,3 C 86 % 1017,6 hPa 0,0 l/m 0,0 km/h (0 Bft) O-SO 112 0 min 0,000 mm 0 W/m 10,9 C 13,2 C 1,6 km/h (1 Bft) 100 %
_ Min-Zeit 02:20 02:20 06:10 16:00 00:00 - 00:30 - - - - - 13:20 16:30 01:30 04:10
Minimum _ 12,2 C 12,2 C 12,2 C 54 % 1011,2 hPa - 0,0 km/h (0 Bft) - - - - - 9,9 C 11,3 C 0,0 km/h (0 Bft) 87 %
_ Max-Zeit 15:50 15:30 15:50 10:00 23:30 08:20 16:00 - - 09:40 15:00 12:50 12:20 15:50 16:10 00:00
Maximum _ 20,4 C 19,8 C 20,4 C 88 % 1017,8 hPa 1,6 l/m 22,9 km/h
W-NW (4 Bft)
- - 10 min 0,483 mm 1160 W/m 13,5 C 19,8 C 37,0 km/h
NW (5 Bft)
100 %
Durchschnitt _ 14,4 C 14,3 C 14,5 C 81 % 1014,2 hPa #5,8 l/m 3,6 km/h (1 Bft) W-SW - #8:00 h #2,641 mm 323 W/m 11,1 C 14,1 C 10,5 km/h (2 Bft) 100 %
PRIVATE WETTERSTATION BILLIGHEIM-ALLFELD - www.neckar-odenwald-wetter.de - Holger Sonntag